Total_Precipitation_Accumulation
1.91 1.83 2.63 2.68 2.27 1.82 1.69 1.68 1.53 1.40 1.39 1.31 1.06 0.98 0.95 0.93 0.79 0.68 0.60 0.52 0.52 0.52 0.54 0.53 0.56 0.64 0.68 0.67 0.60 0.76 0.81 0.71 0.63 0.62 0.75 0.88 0.93 1.04 1.21 1.39 1.76 2.03 1.70
1.57 1.53 2.46 2.64 2.25 1.81 1.57 1.56 1.53 1.40 1.39 1.25 1.12 1.00 0.97 0.91 0.80 0.68 0.54 0.52 0.53 0.52 0.50 0.52 0.59 0.60 0.65 0.72 0.70 0.79 0.77 0.63 0.54 0.58 0.89 1.14 1.10 1.09 1.20 1.29 1.68 1.94 1.70
1.26 1.30 1.92 2.43 2.20 1.80 1.55 1.47 1.48 1.41 1.44 1.33 1.24 1.10 0.99 0.90 0.82 0.71 0.60 0.62 0.61 0.56 0.51 0.52 0.64 0.66 0.67 0.82 0.77 0.76 0.72 0.62 0.59 0.77 1.23 1.92 1.55 1.14 1.15 1.22 1.45 1.37 1.41
1.18 1.22 1.45 2.01 1.91 1.58 1.40 1.39 1.43 1.38 1.47 1.38 1.20 1.03 0.89 0.87 0.87 0.78 0.72 0.80 0.65 0.55 0.49 0.54 0.66 0.72 0.73 0.83 0.80 0.75 0.70 0.73 0.83 0.97 1.39 1.88 1.91 1.38 1.29 1.37 1.38 1.26 1.35
1.18 1.21 1.58 1.98 1.81 1.59 1.43 1.47 1.51 1.44 1.44 1.29 1.04 0.86 0.82 0.88 0.92 0.92 0.91 0.87 0.65 0.55 0.48 0.52 0.64 0.71 0.73 0.81 0.76 0.71 0.68 0.80 1.03 1.12 1.38 1.71 2.06 1.69 1.35 1.40 1.42 1.35 1.46
1.17 1.19 1.48 1.84 1.74 1.58 1.43 1.48 1.51 1.52 1.49 1.39 1.11 0.92 0.90 0.93 0.91 0.89 0.95 0.81 0.70 0.63 0.55 0.57 0.64 0.71 0.70 0.75 0.77 0.73 0.78 0.89 0.97 1.17 1.43 1.77 1.94 1.63 1.32 1.36 1.42 1.55 1.53
1.04 1.04 1.19 1.59 1.62 1.50 1.41 1.56 1.61 1.61 1.60 1.54 1.26 1.07 0.98 0.92 0.89 0.91 0.97 0.83 0.77 0.71 0.67 0.70 0.73 0.74 0.73 0.78 0.76 0.75 0.75 0.77 0.80 1.03 1.27 1.76 1.75 1.49 1.31 1.32 1.32 1.39 1.45
1.16 1.05 1.02 1.34 1.43 1.38 1.39 1.46 1.51 1.51 1.48 1.44 1.23 1.07 1.00 0.94 0.91 0.99 1.05 0.94 0.87 0.77 0.71 0.73 0.77 0.83 0.84 0.83 0.83 0.80 0.76 0.65 0.65 0.84 1.09 1.50 1.63 1.53 1.34 1.34 1.45 1.38 1.39
1.29 1.22 1.10 1.12 1.21 1.40 1.47 1.43 1.34 1.26 1.25 1.22 1.10 1.04 0.98 0.95 0.90 0.94 0.99 0.92 0.91 0.90 0.86 0.81 0.84 0.91 0.87 0.88 0.88 0.83 0.78 0.66 0.70 0.84 0.87 1.33 1.54 1.50 1.33 1.33 1.46 1.49 1.46
1.48 1.29 1.09 1.01 1.08 1.13 1.20 1.29 1.33 1.31 1.25 1.21 1.08 0.98 0.95 0.89 0.80 0.84 0.80 0.78 0.86 0.97 1.06 1.01 1.00 0.97 0.97 0.93 0.89 0.83 0.78 0.62 0.69 0.75 0.94 1.16 1.47 1.54 1.40 1.20 1.18 1.20 1.24
1.25 1.13 1.12 1.08 1.12 1.16 1.09 1.12 1.30 1.35 1.33 1.18 1.08 1.02 0.91 0.72 0.63 0.69 0.68 0.82 0.94 1.11 1.21 1.24 1.21 1.15 1.06 0.91 0.86 0.80 0.66 0.58 0.70 0.79 1.02 1.19 1.49 1.57 1.43 1.17 1.08 0.98 1.02
0.89 0.89 0.94 0.98 1.08 1.11 1.01 1.24 1.45 1.31 1.16 0.93 0.93 0.85 0.82 0.76 0.73 0.61 0.67 0.89 1.04 1.11 1.15 1.29 1.37 1.21 0.94 0.68 0.67 0.64 0.51 0.50 0.57 0.66 0.89 1.29 1.52 1.56 1.44 1.24 1.06 0.93 0.93
0.77 0.77 0.73 0.79 0.87 0.97 1.11 1.36 1.62 1.66 1.44 1.22 1.01 0.93 0.90 0.79 0.70 0.66 0.66 0.74 0.84 0.89 0.84 0.92 0.95 0.80 0.70 0.63 0.63 0.51 0.47 0.50 0.53 0.63 0.94 1.29 1.52 1.57 1.41 1.27 1.16 1.06 0.99
0.62 0.70 0.57 0.51 0.67 0.81 0.92 1.04 1.30 1.38 1.31 1.16 0.98 0.89 0.94 0.88 0.78 0.76 0.74 0.79 0.80 0.79 0.88 0.90 0.94 0.87 0.71 0.64 0.63 0.63 0.59 0.55 0.60 0.75 0.96 1.17 1.48 1.64 1.53 1.41 1.31 1.19 1.13
0.61 0.68 0.63 0.53 0.53 0.59 0.65 0.73 0.86 1.03 1.14 1.12 1.05 0.88 0.87 0.86 0.83 0.85 0.80 0.83 0.75 0.73 0.83 0.90 0.91 0.94 0.84 0.72 0.67 0.66 0.73 0.67 0.65 0.72 0.90 1.11 1.48 1.78 1.83 1.65 1.45 1.35 1.31
0.55 0.68 0.68 0.58 0.53 0.54 0.54 0.55 0.55 0.71 0.87 1.02 1.01 0.89 0.91 0.92 0.87 0.92 0.87 0.87 0.84 0.78 0.82 0.99 0.94 0.98 0.96 0.88 0.73 0.69 0.72 0.69 0.66 0.69 0.80 1.05 1.25 1.44 1.74 1.91 1.73 1.56 1.41
0.51 0.56 0.63 0.60 0.60 0.63 0.64 0.64 0.54 0.58 0.66 0.80 0.92 0.91 0.95 0.90 0.83 0.86 0.87 0.85 0.85 0.86 0.86 0.91 0.96 1.02 0.92 0.87 0.82 0.77 0.74 0.70 0.62 0.69 0.71 0.81 0.83 0.99 1.30 1.61 1.78 1.73 1.64
0.58 0.60 0.65 0.64 0.69 0.72 0.76 0.78 0.73 0.78 0.81 0.83 0.97 0.94 0.89 0.92 0.89 0.89 0.93 0.94 0.99 1.03 1.00 1.01 1.06 1.08 1.03 1.01 1.00 0.96 0.79 0.80 0.71 0.70 0.69 0.72 0.78 0.75 0.89 1.06 1.32 1.53 1.70
0.53 0.56 0.60 0.69 0.70 0.70 0.75 0.87 1.00 1.04 1.05 1.02 1.06 1.02 0.92 0.90 0.95 1.06 1.09 1.15 1.13 1.15 1.17 1.13 1.15 1.08 1.09 1.10 1.03 1.01 0.90 0.89 0.84 0.72 0.78 0.80 0.80 0.76 0.80 0.71 0.77 0.89 1.15
0.44 0.48 0.52 0.60 0.78 0.90 0.94 0.94 1.08 1.14 1.22 1.31 1.36 1.24 1.10 1.12 1.25 1.40 1.48 1.42 1.42 1.42 1.42 1.37 1.45 1.34 1.16 1.16 1.09 1.03 0.92 0.83 0.89 0.87 0.85 0.85 0.89 0.86 0.80 0.70 0.66 0.55 0.66
0.30 0.36 0.43 0.49 0.66 0.79 0.85 0.95 1.13 1.30 1.47 1.62 1.74 1.64 1.50 1.46 1.63 1.75 1.69 1.77 1.80 1.67 1.68 1.72 1.79 1.73 1.47 1.33 1.41 1.31 1.04 0.81 0.87 0.86 0.83 0.88 0.94 1.05 1.07 0.94 0.79 0.71 0.67
0.19 0.23 0.29 0.37 0.47 0.59 0.75 0.98 1.18 1.47 1.56 1.64 1.78 1.82 1.76 1.70 1.85 1.89 1.98 2.06 2.10 2.09 2.05 1.94 2.02 2.11 1.85 1.63 1.75 2.04 1.64 1.23 0.88 0.71 0.80 0.85 0.95 1.18 1.25 1.07 0.87 0.80 0.79
0.14 0.15 0.22 0.34 0.47 0.68 0.92 1.23 1.52 1.74 1.82 1.87 1.82 1.89 1.97 2.02 2.08 2.11 2.17 2.24 2.25 2.11 2.10 2.19 2.28 2.61 2.42 2.07 1.89 2.15 1.95 1.62 1.32 0.91 0.84 0.89 0.98 1.15 1.27 1.28 1.16 1.09 0.99
0.14 0.18 0.29 0.47 0.66 0.92 1.26 1.61 1.84 2.06 2.16 2.01 1.99 2.02 2.03 1.99 2.02 2.13 2.14 2.14 2.11 2.06 2.14 2.19 2.22 2.60 2.78 2.49 2.17 1.83 1.62 1.60 1.66 1.36 1.00 0.96 1.04 1.06 1.17 1.25 1.19 1.25 1.23
0.28 0.34 0.50 0.75 1.04 1.32 1.55 1.74 1.94 2.07 2.09 2.07 2.02 2.01 1.95 1.92 1.88 1.92 1.94 2.03 2.06 2.10 2.16 2.33 2.43 2.64 2.66 2.67 2.49 2.31 2.10 1.81 1.47 1.51 1.43 1.18 1.15 1.07 1.15 1.28 1.31 1.39 1.40
0.44 0.57 0.75 0.92 1.21 1.39 1.51 1.62 1.81 1.96 2.01 2.02 2.00 2.00 1.99 1.97 1.87 1.80 1.77 1.83 1.95 2.12 2.18 2.27 2.41 2.63 2.72 2.81 2.74 2.48 2.39 2.23 1.93 1.80 1.55 1.41 1.40 1.21 1.18 1.21 1.25 1.38 1.52